DELTA 4 R/B

基本信息
目录编号:
38834
目录名称:
DELTA 4 R/B
国际标识:
2012-053B
轨道中心:
EARTH
物体状态:
在轨
发射日期:
2012-10-04 UTC
国别:
美国 (US)
轨道信息
数据来源: 国际轨道数据
星历时间: 2026-07-12T09:42:17+0800
半长轴: 27589.606km
偏心率: 0.0210238
轨道倾角: 52.865°
近地点辐角: 130.454°
升交点赤经: 164.291°
平近点角: 50.833°
近地点: 20631.43km
远地点: 21791.508km
周期: 760.113分钟
每日圈数: 1.894456
详细信息
发射场:
AFETR
轨道高度:
MEO
数据来源:
AOE Integration Group
参考系:
TEME
时间系统:
UTC
历元类型:
SGP4
2D轨道图
3D轨道图
轨道高度分析图
轨道倾角分析图
轨道综合分析图
查看轨道综合分析图